Location: Dortmund
(51.5019°N, 7.6520°E)
Time: 09:14:27
(UTC+01:00)

ISS - Pass Details

Date: 11 November 2017
Orbit: 402 x 407 km, 51.6° (Epoch: 21 November)

Event Time Altitude Azimuth Distance (km) Brightness Sun altitude
Exits shadow 06:42:32 13° 275° (W) 1,293 -1.9 -9.2°
Maximum altitude 06:45:15 46° 204° (SSW) 555 -3.2 -8.8°
Drops below altitude 10° 06:48:23 10° 130° (SE) 1,453 0.3 -8.3°
Sets 06:50:30 0° 124° (ESE) 2,310 1.8 -8.0°
